GFSNE_2pvu_pres_078.txt.gz
Presure
172 168 173 200 184 149 187 202 171 163 173 191 198 180 179 159 184 195 200 200 188 198 190 204 176 221 233 235 259 236 239 237 238 251 242 274 262 258
170 195 178 167 196 183 164 160 164 199 189 209 174 191 178 157 178 197 204 213 197 196 230 218 234 259 263 254 242 245 240 248 241 251 259 262 259 249
188 166 183 189 185 177 168 167 199 196 186 194 204 192 186 162 188 211 198 196 208 216 237 237 272 266 271 269 257 254 251 245 265 264 254 261 246 245
156 180 199 196 148 198 200 177 220 182 201 171 187 198 184 182 217 180 228 228 240 236 239 282 266 286 281 287 272 274 293 251 252 243 254 265 238 255
188 180 188 135 180 183 180 225 158 196 178 205 199 194 186 187 213 210 230 265 258 262 302 287 272 281 262 281 270 246 243 264 261 249 262 258 245 248
173 190 173 199 220 179 234 205 190 196 186 198 195 203 216 217 230 287 241 323 303 287 281 233 283 292 289 281 287 233 248 278 267 268 262 254 255 250
192 188 209 162 200 219 176 220 170 201 197 207 216 214 217 237 307 297 307 293 273 254 266 295 289 283 284 262 296 283 285 283 285 279 267 278 252 273
144 163 211 194 191 197 199 214 200 222 162 221 222 204 236 350 309 293 270 249 330 303 307 335 273 296 304 290 264 262 287 262 278 283 271 273 277 283
197 226 203 202 204 207 209 216 213 213 229 214 220 271 289 291 246 259 322 324 321 324 320 331 333 314 283 283 275 280 295 292 293 291 281 287 284 270
209 205 195 210 212 221 217 217 213 225 211 237 284 288 263 285 297 273 310 316 324 312 337 329 307 293 284 293 282 270 288 291 285 285 285 279 262 256
214 207 212 212 223 211 157 204 317 269 279 290 271 292 312 305 300 311 325 339 361 326 318 301 296 284 287 302 274 289 292 260 260 278 268 259 255 255
216 197 214 184 225 250 293 279 209 239 298 327 299 307 300 297 307 305 325 329 318 327 303 285 288 287 287 274 263 262 273 256 265 251 237 261 233 231
221 262 244 291 280 278 240 305 287 306 297 309 298 299 297 293 291 312 307 308 305 297 300 290 290 287 277 279 264 260 274 249 248 246 251 251 232 229
273 266 274 281 280 262 266 262 283 298 304 298 291 294 283 276 270 267 275 296 293 291 290 293 274 262 261 265 261 259 240 263 260 255 247 235 238 238
280 263 266 259 284 284 277 292 308 298 287 290 285 281 276 265 277 268 283 280 270 265 256 259 263 249 250 247 244 245 249 249 234 228 237 239 234 234
271 266 259 274 286 279 292 302 295 281 284 276 276 291 277 284 267 270 279 276 267 253 258 258 247 249 252 252 242 248 248 248 242 235 242 242 242 242
277 275 264 261 270 287 302 292 281 279 271 271 282 279 274 266 272 262 277 263 262 256 252 258 254 251 241 248 253 251 248 244 242 242 239 237 238 240
266 268 274 277 286 304 290 283 273 270 269 266 285 268 263 265 264 255 254 261 266 259 252 251 252 251 245 243 243 246 240 229 233 240 240 240 238 230
263 263 270 288 283 294 281 265 268 267 265 264 278 262 253 259 256 257 260 256 246 250 251 252 247 241 241 238 236 241 248 242 238 238 238 230 229 231
266 264 285 279 267 262 264 265 267 264 264 262 278 262 252 261 257 244 249 249 245 246 247 243 238 238 245 244 246 248 239 238 237 234 235 230 233 243
262 274 278 266 265 260 257 252 252 269 262 261 277 257 250 247 247 244 248 240 244 243 246 241 239 244 258 255 251 243 239 238 240 239 237 236 246 249
265 263 258 255 251 251 247 258 255 273 260 260 260 250 250 243 242 241 242 240 242 238 245 239 234 235 255 252 245 238 239 241 242 238 232 246 249 249
262 253 251 245 241 247 242 253 254 268 261 256 241 259 250 247 240 244 243 239 239 245 242 247 250 261 257 251 242 242 246 241 243 249 250 244 244 258

GFSNE_2pvu_pres_081.txt.gz
Presure
200 177 193 183 219 189 174 188 191 195 202 179 190 176 181 198 213 198 202 183 190 225 194 204 207 205 201 215 227 319 293 270 295 270 261 252 246 244
161 174 177 171 189 170 199 187 183 194 160 194 150 183 208 204 180 191 200 205 177 196 206 224 225 208 217 232 316 290 249 291 265 230 270 263 254 252
184 184 185 167 170 172 190 184 176 170 175 197 199 193 197 176 189 196 207 177 197 204 204 214 205 228 222 233 324 260 237 269 268 265 252 257 277 264
181 194 203 174 148 188 190 153 164 172 193 197 200 165 214 196 192 187 198 196 205 210 218 231 232 248 312 319 242 249 283 234 277 279 245 244 262 239
188 145 143 191 186 212 157 207 187 151 195 153 166 202 199 173 193 176 219 201 210 214 198 254 229 314 272 273 315 264 312 274 268 242 270 263 229 241
169 135 178 164 154 168 144 177 176 193 168 182 196 199 200 215 204 202 204 206 206 212 206 239 242 289 318 317 295 305 284 282 267 270 245 257 241 249
166 175 148 152 175 206 190 192 198 184 198 198 186 197 187 217 209 175 185 227 175 164 251 321 314 319 331 321 343 310 306 282 263 260 261 267 254 242
150 144 169 187 190 155 157 203 191 205 162 211 215 194 217 218 196 233 231 205 194 242 326 315 320 309 315 324 314 324 298 285 307 276 254 263 279 280
212 196 192 172 228 176 206 214 185 201 209 215 191 188 197 201 236 220 233 219 228 325 318 310 326 324 325 316 317 317 292 284 276 302 261 264 263 266
205 175 211 223 218 190 186 203 220 195 199 212 215 197 203 229 221 232 294 244 298 319 321 339 340 333 345 319 317 303 294 280 274 270 269 268 282 288
232 211 221 210 202 189 183 201 206 195 180 199 205 229 215 245 217 233 272 243 309 316 332 338 359 313 324 304 294 293 291 283 273 271 268 278 281 278
207 202 211 187 174 184 178 188 179 212 211 192 219 235 199 240 324 294 308 307 308 317 323 315 324 320 305 298 302 297 287 288 267 293 276 271 252 261
197 198 198 195 217 207 201 196 197 204 206 225 191 224 303 289 318 308 300 298 288 285 306 268 311 292 291 279 270 264 277 267 256 261 260 261 255 247
212 216 224 215 214 202 197 217 214 199 234 202 289 293 300 317 284 278 297 290 278 281 285 291 290 282 282 283 275 266 260 257 258 265 261 248 251 247
229 228 234 230 217 205 220 210 202 284 289 283 272 293 252 278 276 292 286 275 270 277 275 258 281 246 277 277 262 262 258 258 260 259 252 258 256 250
279 271 273 285 271 276 278 273 260 276 269 269 288 276 279 295 287 282 293 279 288 268 270 265 257 261 254 257 242 248 251 248 232 239 249 253 251 235
288 253 282 259 271 275 251 251 255 268 274 274 259 302 295 286 278 276 280 272 268 273 264 275 258 252 254 254 247 246 240 241 245 247 245 244 244 243
277 286 263 264 255 268 271 275 262 277 272 284 279 295 285 276 270 267 272 268 264 267 258 265 269 267 260 255 265 264 256 248 243 241 244 247 234 231
287 272 271 267 267 267 268 264 270 275 276 286 290 283 269 262 264 263 267 260 262 261 265 262 250 250 253 253 253 249 246 239 236 237 236 241 249 246
306 281 266 265 261 260 263 254 254 252 259 279 287 271 258 264 261 259 263 259 257 264 250 252 249 246 245 240 237 240 240 237 244 242 245 250 242 239
314 302 282 267 264 262 261 262 260 270 281 268 275 260 260 256 256 257 260 257 253 254 244 244 243 237 238 249 248 247 239 236 250 255 251 246 240 239
304 305 294 284 266 261 259 265 267 265 274 260 254 254 243 252 254 256 261 249 249 248 243 242 242 240 242 242 243 239 249 247 258 258 251 245 241 243
303 302 295 286 280 280 277 279 266 266 255 254 247 244 251 263 253 255 249 255 246 249 244 244 247 242 237 244 241 248 259 254 243 238 232 241 238 244

GFSNE_2pvu_pres_084.txt.gz
Presure
185 141 191 178 177 201 191 156 191 177 185 183 172 214 219 170 224 222 170 173 153 146 189 182 202 190 206 203 195 221 236 219 239 233 228 278 258 271
174 162 179 194 165 182 188 185 193 199 189 193 181 205 157 221 175 198 183 144 140 194 170 202 196 196 220 201 210 215 225 254 344 258 310 295 285 303
190 198 173 180 169 175 183 189 171 176 159 170 181 150 166 200 185 164 214 164 200 182 139 183 193 203 203 209 231 204 201 274 236 296 306 311 279 292
196 176 176 185 177 191 194 190 169 185 165 151 179 196 179 170 182 183 219 208 181 206 197 180 209 214 207 216 223 230 338 332 327 307 303 311 284 269
155 190 181 186 154 187 170 140 195 181 159 144 189 186 192 159 199 211 190 180 185 194 179 194 174 224 228 220 197 326 239 365 349 300 302 299 268 262
154 181 175 161 164 136 157 174 183 160 156 201 191 198 188 216 197 176 170 182 193 211 209 209 213 207 215 238 243 244 330 322 341 321 316 291 274 264
191 188 177 209 207 161 199 160 150 196 204 189 208 194 179 197 186 197 196 207 193 193 216 204 201 200 207 311 240 318 323 316 325 335 294 294 270 252
219 152 226 210 189 209 202 200 191 204 182 187 198 190 188 198 157 188 212 194 203 205 211 223 201 197 247 244 271 333 335 328 320 323 306 280 262 257
195 209 210 177 174 190 186 149 166 193 183 186 189 183 200 182 195 201 210 222 192 202 208 211 201 220 273 335 354 338 350 330 327 318 283 290 265 263
188 215 209 181 183 201 193 169 169 194 197 193 191 184 191 208 192 202 193 208 210 244 234 274 223 252 232 352 362 346 325 316 309 317 299 279 275 277
215 210 208 200 199 192 209 205 210 189 201 207 206 211 190 190 208 217 211 221 213 246 227 209 264 283 316 334 333 323 313 311 307 292 298 284 266 282
199 210 188 189 198 215 206 209 217 187 198 213 218 216 220 200 225 194 211 212 206 208 252 288 277 301 315 330 327 300 306 302 290 286 286 280 275 270
212 213 197 192 203 209 223 227 208 203 198 210 205 209 223 200 214 221 235 230 205 292 285 307 291 293 304 327 298 290 281 282 272 276 278 270 291 268
212 213 237 225 200 200 213 198 198 203 202 212 211 208 206 222 226 218 214 222 213 301 281 295 284 281 292 277 298 290 290 262 273 276 281 274 258 257
248 235 224 222 218 223 293 233 216 214 218 217 215 214 213 220 211 281 275 237 303 285 296 294 284 284 282 275 268 259 278 285 269 276 270 264 268 264
291 283 302 295 325 319 288 280 271 283 267 286 266 276 262 258 283 244 261 277 270 290 283 283 267 270 277 268 261 259 252 246 250 251 238 238 237 258
284 282 285 287 313 307 297 289 287 281 290 276 258 264 271 267 263 267 279 274 285 279 277 280 269 260 287 273 267 255 258 259 250 247 246 250 246 243
278 282 286 282 288 277 281 293 279 272 268 261 265 268 263 260 268 252 260 290 277 266 266 271 264 262 264 253 268 266 272 270 266 257 254 248 252 246
288 286 291 280 286 301 295 286 277 277 269 268 260 253 254 253 255 272 288 280 265 260 260 266 261 259 262 263 259 250 254 254 251 252 249 245 239 238
300 296 296 287 280 282 325 280 274 270 268 263 260 254 252 266 257 252 282 271 258 254 259 265 262 260 267 251 251 244 246 241 235 239 240 243 239 242
305 293 291 289 285 284 338 295 267 265 263 257 258 255 252 254 250 252 272 260 252 254 255 258 260 258 255 248 248 241 238 237 242 245 239 238 245 245
319 307 301 291 283 278 297 314 273 265 259 253 252 249 255 252 257 261 272 252 252 248 251 254 258 245 249 243 239 240 240 240 236 241 237 241 253 260
333 316 304 289 291 288 315 312 286 271 261 252 250 252 257 252 255 256 250 250 242 243 252 250 255 245 238 248 248 241 242 250 241 243 242 249 244 242

GFSNE_2pvu_pres_087.txt.gz
Presure
164 170 167 191 163 179 187 183 167 199 174 189 178 200 204 186 180 200 201 207 194 183 198 184 213 161 154 204 153 140 161 203 209 210 215 204 221 319
184 160 187 175 168 191 183 182 166 178 186 176 186 173 202 197 177 189 166 189 197 204 222 212 219 164 190 133 167 191 186 205 195 226 235 237 280 289
186 175 174 169 167 160 176 173 188 167 184 181 209 183 193 188 186 170 201 193 192 193 177 214 206 193 171 190 150 194 205 192 222 216 253 232 276 328
169 179 188 187 171 172 185 199 194 187 181 180 177 213 188 172 177 188 144 182 209 165 210 186 188 180 192 190 187 199 180 195 219 218 187 334 226 317
168 185 197 187 188 197 174 178 161 157 200 185 208 209 179 164 181 180 145 190 192 207 180 207 175 179 180 192 184 179 222 225 195 246 250 244 355 340
189 191 195 183 179 176 169 174 179 219 157 194 210 163 176 193 194 133 196 154 189 180 187 185 186 189 203 186 209 195 215 206 240 322 297 340 348 312
175 179 195 196 189 164 189 223 189 229 199 218 203 182 151 187 212 191 186 189 165 183 212 193 198 182 192 198 209 204 236 242 246 236 244 344 337 321
203 203 176 187 208 205 214 183 188 200 183 206 193 164 179 209 176 183 200 193 221 182 185 185 203 205 210 204 216 217 214 264 222 324 353 342 322 325
204 209 203 191 206 203 220 205 163 161 162 207 190 182 196 177 179 224 187 195 186 191 186 189 202 210 241 232 220 228 253 222 306 359 363 345 321 313
213 212 209 215 206 225 199 196 206 210 195 196 203 185 200 206 182 181 188 185 193 173 193 207 204 231 199 204 223 203 215 258 359 339 333 323 319 310
228 220 206 188 183 219 207 192 198 205 221 182 192 203 171 178 190 179 179 203 181 185 194 208 184 228 207 223 211 251 286 224 335 323 321 324 321 306
197 211 192 208 207 219 205 212 215 203 200 204 199 194 195 196 186 184 183 187 196 196 204 254 267 219 183 202 194 273 286 332 324 310 290 306 294 296
193 222 218 219 220 216 208 201 210 202 197 217 210 208 203 199 198 203 207 210 189 204 240 212 244 253 227 244 280 299 289 302 310 278 295 293 286 283
222 229 241 228 215 217 219 215 239 227 221 189 202 198 210 219 206 219 209 228 227 218 244 264 287 264 278 278 302 295 292 281 296 300 281 284 281 283
261 265 243 233 229 246 218 262 221 276 281 288 328 296 266 199 205 268 257 256 270 263 266 282 279 274 273 267 292 279 283 286 267 266 286 276 282 285
241 244 295 276 266 281 294 282 301 260 293 281 276 290 301 285 279 283 275 271 255 275 260 265 269 266 283 291 279 275 271 277 270 270 265 250 256 277
257 314 269 233 272 255 264 277 245 256 267 269 262 292 312 240 276 276 270 263 262 264 259 269 257 257 282 272 269 265 272 271 264 257 261 256 252 255
336 323 305 296 300 289 285 289 276 284 271 263 279 284 308 276 290 270 266 265 260 251 262 251 261 273 265 270 266 260 263 252 266 263 256 255 257 254
411 357 339 316 305 302 302 291 282 273 275 268 265 276 302 273 284 278 264 253 247 255 244 253 277 265 261 258 257 257 260 264 274 262 253 251 249 249
412 403 377 345 327 312 308 292 285 290 283 267 265 266 290 285 276 262 252 245 251 242 251 253 274 258 254 255 257 251 257 260 253 248 244 249 245 240
423 407 397 369 342 329 315 304 289 291 285 278 274 286 277 273 267 262 250 247 241 246 246 247 267 250 253 253 256 247 260 243 244 249 246 241 240 240
334 349 393 382 355 333 320 313 302 300 281 276 284 286 275 269 264 257 248 240 247 240 241 247 260 247 250 247 250 250 252 246 237 241 242 241 239 241
417 359 332 364 353 337 319 306 301 285 290 283 285 289 275 264 259 254 249 247 240 240 244 261 257 247 241 240 246 251 243 237 239 247 245 239 240 246

GFSNE_2pvu_pres_090.txt.gz
Presure
144 180 171 162 192 160 172 154 170 193 178 187 182 190 169 192 186 189 187 158 176 170 190 220 184 167 187 209 207 204 209 180 170 163 184 189 193 204
182 178 172 180 158 168 163 170 175 176 200 169 183 191 194 179 181 189 171 179 171 196 182 194 208 198 180 203 188 171 202 132 181 170 192 186 209 211
174 178 182 168 166 171 188 166 163 157 171 184 175 182 182 176 177 178 174 201 183 178 176 197 200 173 224 200 202 209 192 189 180 168 190 202 206 214
207 194 191 186 185 183 170 152 194 190 185 182 191 174 172 179 188 183 171 184 190 176 189 209 201 149 222 181 211 168 180 205 201 190 193 189 206 235
182 199 193 185 188 196 178 187 188 176 157 181 178 170 165 164 169 184 187 170 161 190 202 215 169 129 206 218 182 182 213 180 193 187 192 198 214 207
173 159 170 210 208 198 209 186 186 181 179 190 175 199 200 188 160 160 154 171 220 185 230 199 199 184 194 200 181 196 207 180 190 197 201 222 238 260
197 201 203 209 222 189 185 210 188 188 194 208 168 194 171 147 192 181 210 216 209 206 212 198 178 182 194 213 216 182 208 193 194 223 228 219 262 252
183 205 219 170 171 210 182 191 192 192 207 194 193 208 191 221 216 201 226 192 188 164 193 199 211 199 192 192 216 182 186 199 207 206 202 272 247 280
207 231 220 205 204 199 203 210 185 214 174 203 209 213 233 206 214 201 180 221 206 206 192 198 194 192 193 198 210 205 223 193 201 225 231 247 300 376
197 216 209 211 211 201 225 212 213 201 219 217 198 200 204 184 176 176 172 199 218 193 181 184 201 191 195 206 206 204 203 219 222 263 250 272 321 360
186 184 224 193 219 226 212 230 212 215 176 192 172 198 201 225 207 195 216 201 196 204 191 192 203 199 194 203 206 187 207 244 250 267 301 327 336 331
212 210 209 231 228 197 222 248 201 204 230 183 224 207 210 204 230 213 199 210 206 197 212 199 193 193 206 234 181 253 247 203 292 275 307 320 310 310
235 233 212 222 215 216 219 233 212 235 211 218 219 211 209 198 198 204 209 206 200 202 188 187 183 254 278 286 266 251 278 293 274 294 301 297 305 305
241 249 244 230 235 232 244 209 217 225 214 213 216 219 223 230 227 245 190 196 217 210 240 219 269 301 253 265 286 274 288 272 271 291 280 275 295 297
301 281 275 261 220 231 260 290 273 256 243 227 233 234 225 240 268 210 267 293 270 268 287 331 267 270 266 276 270 272 274 271 288 280 279 278 265 287
243 268 237 236 243 285 292 278 238 244 251 256 257 216 277 260 279 237 296 243 254 233 264 227 234 278 269 265 262 271 269 256 284 277 269 269 270 277
321 258 257 273 266 264 246 242 244 232 241 233 222 239 230 244 228 278 252 241 252 252 290 279 290 268 267 263 263 265 255 269 270 262 265 266 264 267
451 370 335 319 312 301 296 292 291 291 273 281 253 247 247 261 266 272 264 267 268 263 280 285 265 261 265 258 261 256 250 270 265 261 263 252 259 262
410 423 462 438 424 338 320 307 313 299 294 283 277 299 290 263 273 264 262 265 263 261 283 264 261 260 253 256 254 250 275 260 254 255 254 252 255 259
339 344 378 429 429 409 401 369 335 319 305 306 293 289 284 287 281 275 270 279 267 259 291 274 262 250 247 247 247 247 268 255 252 250 246 256 260 253
422 404 334 343 442 414 391 383 368 341 326 313 314 303 292 280 288 272 272 269 265 287 268 264 252 243 242 242 249 239 259 251 255 251 242 253 247 245
450 428 397 332 326 419 395 377 362 349 343 322 314 301 294 283 285 275 265 272 268 282 272 255 246 239 242 243 240 240 254 250 252 250 242 249 236 240
464 451 422 367 323 313 393 374 365 348 332 330 311 300 295 291 283 272 277 283 276 276 255 249 240 240 240 238 238 238 252 245 247 251 240 247 242 231

GFSNE_2pvu_pres_093.txt.gz
Presure
154 149 173 193 154 173 156 195 161 188 157 159 160 153 177 175 179 172 191 179 181 186 177 176 162 196 166 175 173 177 156 198 225 163 186 199 178 196
170 206 201 192 186 176 194 190 180 160 181 158 196 177 182 168 192 172 188 192 182 180 192 185 190 173 189 190 187 165 192 219 163 200 180 196 205 195
198 183 179 196 170 187 189 186 174 198 190 197 190 177 193 185 183 176 169 171 192 172 175 174 183 186 162 163 178 182 163 215 175 206 157 132 134 185
209 167 186 178 213 173 168 168 198 200 169 175 193 157 192 177 180 169 173 203 153 189 180 195 183 151 161 160 194 194 217 128 190 171 209 199 213 185
186 187 210 180 163 188 205 166 176 204 172 199 165 163 183 195 186 191 191 167 166 150 191 172 164 175 151 206 222 179 167 208 164 224 192 188 204 191
198 199 193 195 195 196 210 185 201 182 184 186 152 150 192 185 190 199 162 185 210 184 173 205 195 164 180 240 196 232 160 212 181 186 195 217 206 212
211 203 196 190 196 192 190 183 191 194 208 181 168 189 183 203 186 195 198 229 189 183 192 208 191 190 243 208 193 215 207 200 204 192 205 188 198 207
187 182 224 200 197 214 205 201 200 191 201 177 182 190 194 205 207 193 211 244 178 175 192 210 216 194 199 222 198 212 181 203 206 191 196 192 201 223
204 209 209 204 203 212 204 195 200 198 190 190 207 190 192 205 198 178 184 240 207 200 218 236 216 199 205 223 205 194 198 194 195 183 196 206 229 216
209 237 193 189 207 212 208 209 202 203 210 205 214 190 188 201 172 217 209 208 229 215 218 189 199 200 198 204 203 200 195 204 194 204 218 230 253 291
230 197 216 196 197 218 197 206 202 220 207 210 200 197 195 196 209 204 196 217 201 182 204 204 211 208 207 214 199 198 208 203 203 219 252 288 294 281
228 231 217 228 226 228 225 232 234 203 213 211 213 225 207 207 232 208 213 222 228 206 216 192 196 189 180 192 215 201 181 240 274 276 298 288 282 283
254 257 231 182 248 244 228 221 223 215 223 212 211 209 213 213 207 218 225 210 217 210 199 203 198 195 231 221 211 215 255 252 262 277 258 274 256 283
251 288 291 280 237 252 254 219 224 230 233 227 248 239 223 218 211 217 211 223 211 212 218 220 263 255 272 251 257 257 274 232 211 245 282 256 275 278
253 239 243 247 278 293 267 224 219 270 279 272 249 228 219 238 241 241 241 248 254 271 271 246 287 221 208 203 248 261 300 298 275 276 275 272 269 287
441 382 356 290 248 264 234 235 247 247 253 269 227 266 263 266 265 269 217 270 225 227 226 240 224 227 255 264 259 267 275 289 277 268 272 266 257 275
434 441 435 376 348 340 325 268 278 266 250 251 241 226 252 236 228 234 226 259 246 241 234 215 235 265 228 262 269 288 287 273 267 264 264 256 273 276
379 384 432 421 399 369 348 337 322 301 303 286 289 274 271 271 262 262 257 244 193 250 246 213 260 276 275 268 266 275 274 268 261 258 259 249 266 258
470 437 363 377 413 418 432 363 346 334 318 307 287 282 273 275 275 274 276 253 272 276 263 276 264 275 270 265 266 279 270 250 260 249 249 257 260 259
475 462 426 412 348 404 423 423 419 363 349 326 307 301 294 287 284 285 285 279 274 275 270 277 265 262 266 299 265 273 254 258 249 241 241 264 256 252
462 463 456 417 403 394 385 448 426 410 392 356 342 328 311 298 286 279 277 272 274 270 281 281 269 267 269 266 259 255 259 253 241 240 240 261 251 248
493 460 460 456 410 393 375 363 403 429 407 393 382 343 326 321 315 304 302 296 284 286 274 280 280 265 268 266 274 268 254 242 240 237 240 255 249 249
493 503 477 461 459 407 389 344 326 328 416 391 379 359 346 324 313 307 303 299 287 287 277 274 275 266 273 270 259 255 246 237 238 239 231 255 249 250

GFSNE_2pvu_pres_099.txt.gz
Presure
237 197 141 155 217 202 203 208 207 181 203 187 202 142 144 181 175 181 187 158 199 175 182 149 182 170 191 199 172 192 205 183 187 177 184 177 182 194
226 223 220 228 224 213 175 150 155 171 206 179 180 184 202 209 172 162 168 188 201 171 192 195 171 200 181 156 228 160 180 176 193 201 159 202 198 180
216 212 211 201 195 211 208 214 208 193 161 175 197 213 190 172 150 157 173 156 153 192 150 211 185 161 183 214 202 181 196 183 174 178 171 178 178 170
166 166 166 194 193 193 198 197 192 198 201 196 198 205 204 156 145 158 193 177 197 213 159 205 195 216 163 178 174 184 226 207 176 198 207 202 178 166
205 195 207 208 199 184 184 207 206 196 209 178 176 168 170 179 193 183 191 220 213 192 200 205 183 193 176 202 190 221 189 188 183 166 193 192 199 186
218 194 191 185 177 175 176 174 177 187 182 181 211 187 194 194 216 223 216 212 196 200 222 190 189 186 209 207 198 210 188 199 188 179 202 187 176 188
203 222 201 199 186 179 191 203 208 192 200 193 182 186 184 194 192 198 182 189 221 220 185 201 206 209 194 206 217 195 198 176 172 210 222 234 177 228
192 205 205 222 214 216 208 203 200 202 163 210 212 211 216 209 196 192 204 200 199 189 198 213 211 216 181 219 165 164 215 173 196 189 175 162 235 211
206 221 221 233 217 210 226 224 218 203 199 191 190 182 175 198 201 196 186 193 187 182 188 199 215 196 179 175 203 225 194 203 224 209 226 214 197 209
251 220 208 170 170 204 228 222 211 205 198 208 216 215 215 207 201 202 205 199 198 196 201 203 199 203 209 210 217 220 238 198 219 204 206 221 205 217
215 255 236 211 215 236 221 198 222 228 208 226 219 210 158 219 217 216 199 204 203 203 194 228 223 210 226 205 223 217 199 212 221 206 214 220 198 207
224 250 247 264 217 236 267 256 235 234 237 224 228 222 221 221 222 216 200 218 225 198 225 199 208 195 193 208 195 205 219 205 204 192 210 201 199 212
229 213 252 241 236 253 239 244 273 282 247 229 236 233 238 229 235 229 218 216 200 195 199 211 193 211 216 187 194 204 185 207 193 207 195 210 215 219
247 256 269 292 311 358 538 499 471 460 374 357 269 282 273 263 247 234 212 213 218 219 194 201 206 205 204 192 202 203 200 204 219 217 214 239 235 262
283 293 304 321 477 464 462 478 454 464 452 421 397 276 264 255 262 258 257 261 250 240 223 211 228 217 216 214 210 207 209 218 228 226 273 262 255 190
296 314 481 457 437 429 426 432 452 503 447 446 408 380 374 367 281 263 249 246 238 244 259 252 250 233 244 241 234 255 253 250 248 204 204 220 215 200
326 433 428 408 401 395 397 397 406 458 485 445 422 390 372 362 354 328 292 249 246 237 237 251 253 237 260 228 213 228 202 211 200 219 224 249 250 247
417 404 392 381 375 376 378 382 390 393 528 455 434 402 374 362 352 340 327 316 264 261 257 239 227 226 232 230 245 230 235 240 206 245 244 247 248 246
406 393 384 376 371 368 373 377 379 392 504 490 447 415 380 362 352 343 337 321 311 308 271 259 241 238 235 255 237 240 229 234 226 240 237 244 248 249
412 399 390 385 379 376 379 395 417 463 486 481 428 430 398 365 350 351 337 332 317 305 296 293 271 257 248 249 246 243 244 243 241 243 252 248 262 250
426 416 411 407 403 394 397 409 422 483 465 461 444 419 416 385 354 344 338 328 322 317 301 289 284 281 263 255 249 249 245 253 251 251 243 250 247 249
434 422 418 415 406 399 402 410 441 469 452 447 439 400 369 409 369 347 336 329 317 313 313 299 290 283 278 265 270 263 255 257 260 253 248 248 245 271
429 418 411 402 397 399 400 426 495 460 442 438 434 413 375 364 404 356 337 330 321 309 305 304 304 293 297 267 277 270 273 269 261 269 264 253 290 277

GFSNE_2pvu_pres_102.txt.gz
Presure
181 183 181 190 194 194 196 180 240 229 224 203 210 189 201 203 195 199 205 181 145 171 179 184 164 188 142 165 145 144 162 144 193 196 170 158 198 194
245 192 196 174 205 280 222 244 238 225 222 182 168 209 216 215 199 203 172 211 181 197 196 195 160 187 172 144 171 183 181 173 195 161 172 235 164 189
194 184 187 223 218 201 181 238 225 228 223 207 200 213 206 214 203 186 170 198 178 187 181 188 193 170 197 201 187 172 181 170 172 188 193 185 201 184
259 251 250 245 237 167 234 227 214 211 225 213 207 210 214 202 155 154 191 192 194 182 176 154 181 154 198 178 185 159 165 189 206 191 165 183 141 161
249 244 246 239 234 229 241 227 231 213 218 210 177 197 179 175 206 178 175 204 175 172 168 161 211 162 156 194 188 191 202 195 208 182 207 221 164 214
251 210 224 234 230 213 208 231 203 195 184 172 186 176 185 189 198 211 193 193 203 153 191 211 189 183 195 196 201 182 186 200 195 213 214 195 207 198
235 215 234 235 210 211 196 192 199 201 197 184 189 190 198 213 190 197 201 193 193 191 193 143 208 193 202 206 214 194 224 214 225 181 207 220 198 196
235 229 238 205 220 229 225 220 219 223 201 220 199 206 210 211 202 208 202 203 207 192 191 192 218 202 200 196 201 198 225 193 209 214 194 211 207 217
252 248 236 236 234 215 218 216 171 219 219 208 203 200 182 173 185 210 211 209 208 208 208 201 190 190 200 207 219 215 208 197 224 205 193 194 202 245
236 226 180 241 200 206 222 209 179 203 221 210 195 219 222 214 199 207 209 203 205 198 194 202 205 199 206 198 211 204 210 217 206 204 217 214 213 201
220 240 223 209 205 266 222 251 200 193 208 204 209 234 219 219 220 216 221 228 200 216 201 204 205 203 200 200 198 196 219 207 196 197 228 221 195 206
245 234 237 193 196 236 224 250 257 262 261 209 206 214 221 225 233 217 214 214 211 198 221 218 210 210 214 201 198 204 203 209 213 203 210 196 215 219
213 224 235 243 241 233 240 220 263 249 249 243 226 226 264 253 256 259 220 238 240 225 218 209 202 205 203 221 214 212 214 202 202 215 192 194 209 213
276 250 255 277 261 231 247 230 235 240 238 237 242 245 250 257 256 274 231 236 257 257 243 220 223 217 218 204 185 190 196 219 189 200 216 190 195 203
268 267 266 274 272 276 281 285 289 280 277 304 300 294 250 249 248 249 248 247 247 230 242 260 235 260 236 210 184 183 186 192 208 183 188 202 205 212
284 281 279 279 282 288 298 301 296 283 293 301 306 323 434 527 487 451 416 398 382 272 255 246 235 235 227 230 259 241 225 211 209 204 208 216 218 220
304 304 304 305 306 292 282 289 297 306 316 364 435 432 441 452 498 436 413 379 373 337 317 320 303 292 240 229 228 226 224 228 243 245 244 241 217 246
283 282 288 295 301 307 313 317 393 422 414 405 397 393 398 420 478 450 402 377 361 327 313 286 288 291 305 288 276 259 248 247 229 217 230 216 228 227
316 319 327 480 468 454 442 427 413 403 394 388 380 379 385 391 469 450 395 374 344 323 320 299 298 286 292 298 293 266 238 227 246 237 230 228 234 233
503 495 488 479 466 454 441 423 407 394 388 383 382 377 377 381 415 437 400 370 348 328 311 302 305 291 305 294 289 275 256 256 242 240 226 242 224 224
484 485 476 468 458 443 429 421 415 405 395 392 392 396 394 446 401 423 400 373 355 328 300 297 294 306 310 295 287 277 267 255 254 244 242 230 233 233
475 481 463 455 449 431 418 412 411 413 408 405 403 411 443 483 445 419 405 398 356 338 313 303 317 312 299 300 279 278 272 262 258 243 243 236 240 238
475 468 459 447 436 422 414 414 411 404 398 404 412 424 477 456 430 410 393 399 363 337 333 319 311 302 300 291 282 276 269 267 261 262 258 254 248 245

GFSNE_2pvu_pres_105.txt.gz
Presure
158 157 171 175 177 176 173 172 175 175 178 194 191 183 179 179 181 182 183 213 188 224 215 215 196 204 194 204 203 148 177 175 180 160 183 177 199 149
265 259 195 224 230 218 183 176 180 177 178 179 180 182 181 184 187 177 231 224 216 206 218 210 189 189 179 185 176 185 194 149 177 196 148 189 197 194
148 245 292 286 280 278 273 261 253 247 238 213 188 193 188 185 238 231 219 207 200 202 203 190 203 196 178 180 191 197 210 192 177 181 173 183 171 199
284 190 188 253 269 258 239 255 152 154 257 260 226 181 255 256 237 229 224 221 207 217 153 153 213 199 193 162 159 170 154 151 189 154 207 183 197 168
261 260 266 258 256 262 249 247 189 250 243 253 247 250 185 239 235 229 216 216 219 217 223 202 207 209 204 180 188 181 182 172 169 166 168 158 188 184
248 248 246 240 240 242 241 233 242 243 237 237 243 235 229 191 231 216 198 205 201 205 203 197 201 207 195 183 184 193 206 192 188 212 185 183 204 200
243 240 228 228 233 233 230 231 251 236 235 233 229 228 225 232 227 213 198 176 190 201 195 178 186 192 212 210 199 196 193 195 196 189 198 211 189 197
238 242 245 230 229 246 232 229 225 242 234 235 229 230 236 221 219 233 226 217 215 203 199 202 204 204 205 210 210 212 205 197 204 202 199 201 204 206
193 215 255 244 240 205 228 236 223 209 211 231 235 235 228 206 222 224 228 217 218 213 210 198 194 171 187 184 200 207 207 208 207 198 199 192 206 202
233 217 213 212 261 170 201 215 196 217 243 228 190 206 214 197 231 218 198 214 198 217 212 207 198 208 207 194 199 203 203 212 207 192 206 205 216 227
169 235 209 239 230 208 189 158 205 193 222 232 237 212 215 222 200 206 228 223 224 221 189 193 196 201 205 199 197 197 195 202 213 223 222 208 215 220
222 165 173 167 165 162 162 158 160 235 237 223 241 266 178 191 216 235 227 217 220 229 223 221 212 204 201 201 205 211 216 211 211 213 211 196 191 200
204 194 162 182 166 164 167 170 231 228 240 227 241 233 212 212 256 212 239 213 202 238 237 233 228 222 206 197 197 209 211 200 202 208 196 186 193 195
306 213 158 158 263 249 238 238 229 230 218 222 238 238 224 222 223 249 243 222 246 244 245 234 242 258 252 252 239 227 219 210 210 207 200 200 196 193
306 303 298 291 293 290 304 295 292 290 284 281 274 273 252 235 255 246 242 250 248 246 247 243 246 253 238 236 237 238 225 225 248 251 249 244 235 235
330 331 330 338 349 311 303 298 291 283 291 289 286 283 278 275 273 268 272 277 270 285 248 246 242 240 248 247 246 234 264 241 239 244 243 226 216 225
307 310 314 319 323 322 327 317 303 309 304 300 294 300 288 285 278 278 280 283 286 291 299 302 297 284 267 271 268 260 247 237 237 235 217 218 204 210
290 296 295 294 293 292 289 289 297 297 299 317 321 319 311 310 311 311 314 316 296 281 288 292 287 284 258 256 235 321 301 299 279 279 302 264 239 223
546 533 523 515 512 513 510 499 358 335 328 322 316 310 306 305 306 306 308 312 313 336 493 487 433 361 348 336 320 317 291 285 290 285 329 276 268 280
513 522 506 491 486 488 494 488 486 485 476 465 458 448 436 430 423 416 414 410 407 443 485 465 382 335 303 308 290 284 263 290 269 263 289 286 280 268
476 490 493 506 490 482 477 469 468 462 454 447 440 428 421 411 405 399 394 388 390 453 450 422 345 323 305 282 286 280 280 263 302 270 280 296 289 267
456 467 475 485 473 465 461 457 454 446 433 425 420 419 411 401 392 390 386 376 380 458 429 411 333 303 312 301 282 286 278 265 270 253 253 264 266 267
431 432 452 458 460 456 451 445 438 427 416 411 409 410 411 409 404 396 392 373 375 434 413 373 321 322 311 297 289 286 271 273 261 258 258 262 268 260

GFSNE_2pvu_pres_108.txt.gz
Presure
137 147 182 172 171 175 169 174 171 172 173 178 171 170 174 169 171 167 172 172 171 171 167 165 170 176 162 179 174 171 181 184 195 194 182 162 182 175
275 272 193 174 185 170 172 141 168 175 185 188 176 173 173 173 173 171 169 167 187 170 172 173 173 172 173 174 185 198 197 206 207 187 193 190 171 188
268 276 263 255 286 295 285 275 271 183 248 242 191 193 241 241 161 157 151 159 206 172 171 184 184 180 184 185 226 204 205 204 160 167 198 201 173 161
119 263 248 114 250 250 269 266 265 271 281 287 277 288 279 273 265 168 243 249 245 228 216 213 212 205 197 238 225 163 166 161 197 160 163 191 193 195
261 221 129 239 256 259 266 267 239 258 247 248 272 253 246 250 256 252 263 261 262 263 256 239 242 210 235 232 230 217 207 206 190 179 169 164 189 171
140 160 127 274 133 186 199 258 268 263 251 252 257 204 254 245 241 239 238 243 241 240 245 214 241 238 220 230 221 213 170 192 197 199 212 193 184 188
142 138 229 149 226 251 231 259 238 260 259 243 248 253 245 235 238 237 233 219 229 226 226 227 219 164 219 221 208 175 205 202 200 192 200 207 193 190
142 141 143 156 158 240 248 239 240 206 198 237 237 252 237 240 227 201 230 228 223 225 222 215 221 214 196 214 194 192 196 211 206 191 192 196 194 187
153 208 198 187 209 208 220 222 228 216 236 229 237 231 236 220 162 234 236 154 173 231 229 221 211 210 213 212 215 210 213 220 213 204 197 198 201 209
234 234 232 230 227 224 218 229 242 228 250 235 235 223 182 198 201 222 212 164 188 217 222 235 224 228 220 199 216 215 212 212 211 210 209 212 210 218
245 235 239 240 241 242 239 233 235 226 240 227 227 219 245 189 228 227 153 218 228 237 175 177 175 182 184 221 215 206 203 195 201 201 189 194 195 205
267 263 260 261 254 243 245 241 186 243 160 210 213 174 152 155 156 157 164 154 225 227 228 221 211 215 207 213 187 182 229 223 212 206 202 211 211 200
286 280 296 271 285 276 264 207 154 257 211 243 217 220 184 154 225 225 228 187 215 222 227 216 213 219 181 198 205 213 216 207 206 206 204 203 199 193
330 330 331 335 339 316 278 269 265 270 275 260 251 259 258 260 250 240 245 231 225 237 225 221 237 199 198 232 200 209 215 217 206 216 211 212 213 214
362 326 307 306 309 316 311 308 370 293 282 277 295 280 268 258 259 248 251 243 252 230 239 235 239 237 215 232 222 215 208 224 235 248 245 228 230 226
320 321 323 327 329 332 336 338 341 346 347 360 351 306 312 311 279 266 263 261 250 248 242 233 227 227 245 231 225 236 231 231 227 232 224 227 229 235
301 400 363 316 307 303 301 299 302 311 319 324 331 337 339 339 302 303 308 299 284 270 265 259 253 247 247 238 241 239 231 236 233 228 228 226 231 230
527 512 505 500 515 544 545 535 469 421 323 309 295 291 308 320 324 332 344 297 290 278 295 288 286 278 271 268 262 258 250 247 248 257 247 248 245 245
497 484 477 481 486 500 515 510 503 503 515 521 518 345 317 299 279 288 317 324 336 290 294 291 286 281 278 272 265 259 255 249 249 247 242 243 243 257
481 473 463 462 471 484 497 509 505 494 495 497 499 500 501 496 465 321 302 292 280 309 317 323 323 304 292 281 291 270 268 262 257 259 260 261 285 268
480 459 454 447 444 469 479 486 483 485 477 480 478 481 483 476 466 457 453 451 365 310 301 294 288 284 291 298 311 299 300 300 296 289 274 267 254 255
497 465 445 440 437 451 461 463 461 461 459 460 458 454 452 450 447 436 432 425 422 422 420 416 394 400 316 306 299 295 289 284 282 283 310 318 305 282
485 465 451 433 430 428 435 435 439 444 446 441 434 427 424 424 423 418 410 406 406 403 396 393 396 396 421 381 357 359 359 328 337 323 321 294 268 265

GFSNE_2pvu_pres_111.txt.gz
Presure
102 147 146 148 154 137 150 136 142 134 160 150 260 170 161 161 165 157 161 164 166 170 173 170 173 172 156 163 157 146 155 157 166 179 150 182 176 177
153 150 139 134 142 151 147 265 280 268 269 161 181 224 145 176 186 186 188 183 183 190 175 187 164 175 170 179 163 171 171 167 158 159 187 163 162 186
120 121 113 123 144 170 246 238 229 234 283 116 249 236 166 187 184 184 199 227 186 182 178 178 175 174 177 184 183 209 193 166 146 191 189 181 184 192
113 112 111 111 273 243 257 243 243 256 125 143 124 141 127 163 184 271 237 176 267 254 231 242 238 231 238 246 244 234 159 218 203 194 155 152 157 203
122 120 131 128 165 257 272 239 135 197 126 133 130 255 208 242 172 234 275 274 277 280 278 275 270 266 265 260 244 242 235 230 216 201 193 191 192 207
133 133 250 229 191 267 253 259 198 237 133 131 142 263 194 253 248 245 200 255 260 262 254 251 250 251 247 245 235 238 230 218 211 192 206 210 223 224
252 259 247 264 153 277 266 142 265 145 141 149 264 203 258 262 272 249 254 256 252 251 240 245 252 255 248 247 250 250 245 241 256 254 238 228 226 208
228 226 227 229 154 169 205 158 155 150 150 152 274 256 258 245 247 252 255 236 249 248 242 243 243 239 232 233 227 234 237 233 228 231 232 216 215 216
243 234 198 184 161 158 176 217 220 234 253 254 218 231 239 258 261 253 258 248 236 242 240 234 240 174 207 152 187 222 224 224 222 216 209 198 202 209
288 276 264 252 245 240 236 240 242 239 232 224 216 233 224 214 225 233 217 223 236 236 183 242 234 176 195 220 151 187 207 213 214 212 211 206 204 205
307 309 293 279 190 267 262 256 243 228 231 233 239 240 234 228 231 218 231 220 215 226 190 206 155 149 154 181 144 179 169 207 213 185 211 211 211 210
339 323 361 328 302 310 297 286 275 264 261 252 246 228 228 236 246 203 222 145 221 199 198 150 150 208 211 225 220 206 201 237 213 212 223 224 216 207
386 350 336 349 353 339 322 316 310 280 278 282 275 259 255 252 246 235 151 234 229 154 213 177 178 224 226 218 208 204 204 205 175 180 209 183 193 192
329 333 340 351 340 322 336 350 354 342 327 303 289 298 293 275 256 256 245 239 238 237 163 218 204 207 210 229 228 177 215 218 189 185 187 212 209 202
310 312 316 319 322 327 336 346 356 318 327 343 357 357 335 293 293 287 254 261 259 246 233 231 231 216 221 251 206 202 201 189 199 205 210 210 196 175
322 466 477 444 433 484 353 352 322 328 336 350 364 367 348 339 337 310 328 284 281 262 260 252 250 234 229 218 226 227 205 218 225 219 221 216 214 187
420 451 425 406 527 514 505 498 502 507 468 351 318 313 327 342 352 332 311 327 331 283 283 277 265 261 250 241 241 235 227 220 209 205 206 213 216 204
445 419 417 522 504 493 480 477 477 493 509 529 532 534 387 324 300 318 335 349 350 337 316 296 278 270 265 254 251 245 239 238 232 226 225 223 217 215
386 412 440 509 497 474 462 462 456 481 502 510 508 506 515 520 519 331 321 293 319 329 334 340 355 309 276 266 262 260 250 247 247 245 228 227 225 224
400 408 432 494 477 462 447 445 459 476 488 489 500 498 496 502 507 513 520 378 322 295 272 311 324 332 341 307 277 293 271 262 252 245 241 241 237 234
378 392 421 471 476 461 442 435 444 455 465 469 476 477 484 484 482 490 494 497 497 414 322 302 277 289 315 320 328 325 282 293 293 282 267 258 255 253
364 377 412 447 466 472 449 431 428 430 441 457 459 459 466 467 469 472 468 472 476 471 470 439 320 305 279 262 304 307 329 334 312 268 268 271 273 272
333 386 390 407 455 459 465 446 428 422 422 435 445 448 448 447 448 447 450 456 452 448 450 452 455 460 322 302 285 260 295 304 315 308 299 275 268 264